User: anonymous   Login
Location: Caltech
(34.1382°N, 118.1253°W)
Time: 02:04:39
(UTC-08:00)
Language:

Cosmos 2219 Rocket - Orbit

View from above orbital plane
View from above orbital plane
View from above satellite
View from above satellite

Ground track
Ground track

The orbit data is extracted from the following two-line orbital elements,

1 22220U 92076B   16044.90633529 -.00000222  00000-0 -87235-4 0  9991
2 22220  71.0014   9.1336 0015108 294.0320  97.4477 14.16390701201496
Epoch (UTC): 13 February 2016 21:45:07
Eccentricity: 0.0015108
inclination: 71.0014°
perigee height: 826 km
apogee height: 848 km
right ascension of ascending node: 9.1336°
argument of perigee: 294.0320°
revolutions per day: 14.16390701
mean anomaly at epoch: 97.4477°
orbit number at epoch: 20149

The dashed part of the orbit path shows where the satellite is in the earth's shadow,  

DLR